RH
9 11 16 18 10 8 11 14 16 53 88 100 100 100 100 100 100 78 100 100 100 100 77 85 40 35 29 26 18 24 33 40 30 44 77 78 79 82 95 38 35 54 83 42
12 13 14 16 12 8 7 11 14 21 50 100 100 100 100 100 94 78 100 100 99 99 94 97 50 41 38 30 28 15 18 26 40 33 42 53 82 77 93 85 54 49 52 52
14 14 12 14 13 10 8 8 15 17 30 98 100 100 99 100 100 100 100 100 100 94 100 100 59 33 28 25 21 16 16 17 29 41 32 50 78 88 92 87 55 54 61 51
16 13 13 13 13 14 10 9 10 18 18 26 83 100 88 100 100 97 82 100 100 92 100 100 66 45 30 23 21 14 16 17 16 29 51 35 80 100 94 96 98 60 63 70
16 13 14 14 14 15 16 9 9 10 16 16 25 74 84 100 100 100 97 93 82 100 100 100 78 60 48 21 20 19 14 16 18 17 28 62 52 80 93 92 74 100 86 88
15 13 14 16 13 15 12 12 11 9 10 14 18 48 79 80 81 98 95 100 100 100 100 81 76 54 54 33 44 22 19 16 16 17 21 22 59 62 71 100 100 90 90 68
22 19 16 16 14 13 11 11 11 12 10 10 15 17 47 41 34 49 80 93 96 97 97 85 96 76 62 69 59 34 22 23 20 16 20 24 23 42 58 70 96 100 86 75
20 23 19 19 16 15 12 11 13 15 16 13 10 13 16 24 63 98 96 77 83 100 74 98 97 99 99 84 64 55 45 28 27 23 16 22 23 24 33 37 48 72 96 78
21 22 24 21 17 15 14 12 14 14 17 19 11 11 11 15 24 42 63 74 70 73 99 95 100 100 90 90 69 50 49 34 40 41 25 23 26 24 28 24 31 61 43 62
28 20 22 25 23 20 16 15 14 14 16 17 15 15 12 11 16 21 29 31 42 72 99 88 94 77 97 92 75 62 50 59 68 49 50 36 37 28 31 33 34 24 42 66
44 23 22 22 26 26 23 15 13 14 17 16 16 18 17 12 12 15 20 22 42 67 78 78 84 76 100 91 79 83 79 99 100 78 66 77 74 64 82 62 56 44 37 47
60 43 28 25 23 29 26 20 14 11 15 16 15 18 16 16 12 13 15 19 67 86 73 74 71 78 100 100 72 68 100 100 100 100 100 100 100 100 100 100 100 100 92 81
67 71 44 37 33 32 26 21 16 13 14 15 17 17 18 19 19 15 14 24 37 49 66 73 74 61 65 68 68 74 77 100 100 92 92 98 100 81 81 98 100 60 100 100
58 70 60 44 33 28 24 21 21 17 15 16 14 17 18 24 26 23 20 15 29 37 63 78 83 98 65 66 89 74 65 90 100 100 100 89 92 72 93 86 90 100 77 73
53 72 78 60 43 32 32 22 19 21 18 18 19 18 18 20 21 25 25 22 20 18 25 78 94 100 98 75 100 72 78 54 90 100 100 94 82 76 93 92 74 98 100 77
49 64 79 74 59 50 32 26 20 17 18 20 20 20 19 23 20 22 24 26 25 21 19 26 55 100 100 89 79 100 100 52 69 100 97 100 85 79 73 100 81 76 100 94
51 49 60 61 56 58 48 38 29 22 16 16 17 20 20 21 20 20 21 22 25 24 22 20 20 100 100 97 93 84 100 88 74 100 100 100 97 100 93 73 68 50 56 94
46 58 51 59 52 47 51 47 45 27 21 18 16 17 19 19 20 19 19 21 24 26 25 23 21 23 45 69 78 99 96 100 100 99 100 100 100 99 100 97 100 78 46 55
45 54 75 70 60 57 51 42 48 49 29 21 22 21 16 19 19 20 20 20 21 22 26 26 24 23 37 32 38 54 100 97 100 100 100 100 100 100 100 100 100 93 73 73
48 50 54 84 84 63 60 59 47 46 44 40 28 20 19 19 20 21 18 18 19 20 22 21 23 24 27 61 66 31 52 81 100 100 100 99 100 100 100 100 100 100 100 96
38 48 59 56 66 83 71 63 59 42 36 42 48 37 32 26 24 22 21 19 17 18 19 20 20 21 23 26 65 87 45 74 100 100 100 100 94 100 100 100 100 100 100 79
24 31 47 49 49 50 61 71 87 72 39 40 45 42 38 40 35 32 30 23 18 16 16 17 17 18 18 20 23 54 99 64 88 100 100 100 100 100 100 100 100 100 100 100
28 26 27 31 48 55 51 43 55 88 96 45 42 53 48 43 39 42 33 28 25 22 17 15 16 17 18 18 18 20 28 72 84 60 99 100 100 100 100 100 100 100 100 100
31 27 25 25 29 34 40 45 44 42 64 93 56 44 60 65 46 43 39 34 32 26 23 21 14 14 14 16 17 19 20 19 24 93 93 96 100 100 100 100 100 100 100 100
46 36 32 26 24 24 26 34 41 44 45 56 72 62 49 54 67 66 51 42 39 32 28 23 19 16 14 14 13 14 16 18 19 18 52 100 100 100 100 100 100 100 100 100
69 67 56 46 36 26 24 24 23 25 30 33 36 41 42 44 60 64 70 64 50 46 35 29 25 21 19 18 18 16 15 14 15 17 17 25 84 100 99 96 100 100 100 98
Wind_Speed
70 68 64 66 72 71 71 68 64 62 52 39 41 38 40 39 34 29 32 24 24 26 15 11 7 7 9 10 14 15 16 18 15 10 13 15 17 16 18 24 22 24 24 30
71 70 72 70 71 72 71 68 66 64 61 51 45 46 45 46 38 31 25 29 25 21 20 13 7 2 5 7 8 12 11 14 18 14 10 11 11 14 14 20 21 23 23 25
76 78 76 72 73 71 71 71 71 70 68 64 60 57 46 49 45 36 27 28 23 23 18 18 11 5 4 5 4 6 9 11 13 18 11 10 10 12 13 16 20 20 20 22
83 82 76 73 73 72 71 72 75 73 71 72 67 64 56 51 49 40 33 27 28 23 23 21 14 10 5 6 6 3 6 9 10 12 14 8 5 7 11 9 15 18 17 18
82 83 80 74 74 74 75 76 73 79 75 72 71 67 65 57 55 52 46 31 30 22 25 24 18 15 10 8 7 7 3 5 7 7 9 11 11 8 8 9 10 13 14 17
82 83 81 79 80 76 84 77 73 72 78 73 73 67 61 63 58 55 55 48 44 32 30 24 20 17 15 10 11 11 9 4 3 4 6 7 9 10 9 7 10 9 10 14
80 77 80 83 80 80 79 78 75 71 68 76 78 74 75 65 61 59 57 46 48 40 34 27 23 21 18 17 18 15 14 10 8 5 4 7 7 7 7 6 8 8 12 12
80 78 80 79 79 81 81 79 73 70 66 71 79 77 75 68 65 59 56 52 51 46 46 41 29 27 25 26 29 25 20 15 15 10 8 7 9 9 8 7 9 8 10 10
80 78 80 79 82 84 83 80 77 75 72 70 68 77 81 74 70 70 67 59 56 56 48 51 39 29 29 25 27 25 21 20 17 14 15 10 10 12 12 11 10 10 11 11
81 80 79 81 81 83 85 84 83 79 75 71 69 68 74 77 75 71 68 65 61 56 50 51 46 38 30 26 27 27 24 23 22 18 19 18 14 14 14 12 12 12 11 9
83 81 80 81 84 85 85 88 88 83 78 78 74 71 68 73 77 74 72 68 63 60 59 53 47 41 32 29 28 29 28 24 22 23 22 21 17 16 14 14 13 13 13 12
86 84 83 83 82 85 87 88 90 88 82 80 77 73 70 68 72 75 77 74 68 63 61 59 52 49 46 42 33 29 30 29 24 26 21 19 20 21 19 16 17 21 15 13
88 90 88 88 86 86 91 89 89 87 85 81 77 74 72 68 68 68 75 74 74 72 67 65 61 59 55 54 51 47 35 31 30 32 37 36 27 27 25 27 20 18 21 20
92 93 92 91 89 86 86 87 88 87 85 82 80 77 73 70 70 70 68 72 75 75 71 68 64 60 61 57 50 47 42 36 31 24 28 38 34 34 29 27 20 24 26 21
92 94 96 94 90 87 87 87 87 86 85 82 79 78 76 75 75 75 72 73 72 74 74 75 72 68 68 64 58 52 50 45 44 48 48 42 36 35 34 31 25 26 25 29
93 96 98 95 91 89 88 87 86 86 85 83 81 80 79 76 79 77 78 78 78 73 73 76 79 78 73 72 65 59 59 54 50 49 49 47 48 40 42 42 41 31 29 27
92 95 96 96 93 94 90 88 87 85 84 87 88 86 85 85 85 84 81 81 81 80 77 74 79 83 82 78 70 66 67 60 58 57 52 49 51 47 47 43 44 40 38 34
82 89 92 93 93 94 92 92 90 88 87 84 83 86 88 87 85 86 86 84 84 83 82 82 79 79 85 83 84 76 73 67 65 65 63 57 56 56 49 48 49 50 47 44
78 82 85 87 92 91 93 94 92 92 90 89 86 87 87 87 89 91 92 91 89 89 88 86 83 80 77 83 87 83 81 75 74 73 73 64 62 62 57 57 59 57 56 55
80 78 81 83 86 92 91 94 96 96 93 90 90 91 89 89 89 92 96 96 95 95 93 92 89 87 85 82 82 87 90 85 83 83 80 75 66 73 72 65 69 66 67 65
82 83 82 82 82 85 88 92 95 98 94 95 95 95 93 93 93 94 95 97 99 100 100 98 96 94 92 90 87 87 91 95 93 91 91 83 81 80 76 74 68 65 67 67
65 77 88 88 85 84 85 89 88 95 98 98 99 98 98 97 96 97 98 99 100 102 104 104 101 100 98 97 97 95 93 94 99 99 98 89 85 86 84 81 71 67 70 70
37 52 66 78 92 93 91 88 89 90 91 99 98 101 102 101 102 103 103 102 102 101 103 104 105 103 102 100 99 100 101 99 99 100 100 101 95 90 87 82 80 74 73 72
26 33 44 58 72 83 90 93 92 90 91 93 100 103 101 104 108 108 107 107 108 107 105 105 107 108 107 107 107 105 103 105 103 107 107 107 107 101 98 91 85 82 82 78
13 22 31 39 49 62 77 88 95 98 98 97 96 100 104 107 108 109 110 110 111 111 110 109 107 107 107 107 108 109 110 109 108 109 111 115 114 110 103 99 100 97 96 94
10 13 19 25 36 47 56 66 75 88 98 103 104 104 104 108 109 110 111 113 114 115 114 112 113 112 109 107 108 108 109 111 113 114 113 116 120 119 117 114 109 108 106 106
Wind_Direction
215 215 216 215 217 212 212 212 208 206 206 201 218 212 214 214 217 222 225 236 249 255 254 265 294 339 348 8 17 34 38 45 55 58 49 48 43 43 42 42 40 40 41 38
214 217 218 216 219 217 214 213 213 210 211 199 217 216 213 214 217 220 224 225 229 243 251 253 261 294 335 343 16 12 29 41 45 47 56 58 48 31 40 41 38 32 39 40
213 216 218 218 218 219 216 214 214 214 211 206 213 220 215 216 218 221 213 215 221 233 238 258 226 232 290 306 312 12 17 28 45 47 53 65 59 44 37 41 42 33 31 35
215 215 216 219 218 219 219 215 213 217 214 215 215 221 220 218 220 219 220 214 214 227 230 239 234 230 253 286 301 343 21 9 27 40 39 34 56 33 30 26 35 34 34 31
216 215 215 218 220 219 220 218 215 214 218 216 217 223 223 219 222 223 223 222 216 239 226 223 230 240 240 268 301 313 360 15 357 22 26 29 24 10 360 12 19 25 30 32
216 215 215 218 219 219 222 219 218 218 217 219 219 219 222 221 219 224 228 230 236 241 216 211 223 231 229 238 277 280 291 295 328 344 358 3 8 21 7 346 344 12 11 24
215 215 216 218 220 222 223 222 220 220 218 218 221 221 224 228 229 228 228 231 232 233 223 214 218 228 228 246 262 260 266 264 271 273 299 313 326 344 16 349 325 327 353 11
216 214 216 217 218 221 223 222 221 221 218 219 219 224 226 223 222 224 230 231 232 230 233 235 243 229 239 258 267 263 260 243 250 261 258 276 291 306 323 355 9 1 334 351
216 214 218 217 218 220 221 221 222 220 220 219 218 221 225 226 223 224 229 233 234 237 227 234 237 238 249 249 265 250 235 236 245 259 258 259 278 285 298 318 338 356 355 349
217 215 217 219 220 221 222 220 221 221 220 222 221 220 225 224 226 225 227 231 234 235 234 236 245 246 246 233 241 241 224 236 242 253 261 266 274 281 283 294 305 324 341 351
217 217 217 219 220 223 223 221 220 219 221 221 221 221 222 224 225 226 227 228 228 231 234 238 239 237 228 234 228 236 225 233 237 256 257 256 269 267 272 280 292 300 308 329
216 218 217 219 220 224 224 223 222 220 221 223 222 223 224 226 228 225 226 225 224 225 230 234 235 237 236 235 242 244 235 238 246 245 259 252 264 269 278 275 289 290 282 286
214 218 218 220 220 222 225 224 223 222 221 222 223 224 225 226 231 231 229 226 224 225 224 230 233 235 237 243 244 245 247 238 233 259 258 259 254 263 263 265 266 259 276 291
216 218 219 220 221 222 226 227 226 223 222 223 224 224 224 225 227 231 233 234 229 228 224 224 227 228 233 237 240 244 241 234 217 240 248 254 249 256 258 250 251 267 258 241
214 218 221 221 222 221 224 226 226 226 225 224 223 225 227 227 228 228 230 233 236 233 229 225 224 223 229 231 232 236 231 237 227 224 235 244 252 241 251 248 250 253 266 260
215 215 220 221 222 223 224 226 227 226 225 225 225 225 224 228 228 230 230 232 234 236 234 228 226 223 223 226 227 228 229 232 234 224 232 236 243 242 244 247 249 246 253 251
217 218 220 222 223 223 223 227 226 228 227 225 224 224 225 225 227 226 229 231 233 233 235 236 230 227 226 226 222 224 226 225 227 226 229 231 232 233 242 247 242 245 247 251
221 220 222 224 224 226 223 224 228 228 227 227 227 228 228 227 230 231 229 230 231 233 233 233 234 234 231 230 228 226 223 222 224 227 228 227 232 231 234 242 247 245 244 247
224 223 223 226 227 227 227 226 226 229 228 227 226 228 228 228 229 231 231 230 231 232 233 233 233 235 236 234 231 227 223 222 221 227 223 225 234 235 226 232 241 246 244 248
225 227 226 224 227 228 227 230 230 228 229 230 231 229 227 228 229 231 233 232 232 231 233 233 232 232 232 234 234 232 229 228 223 224 228 228 227 231 233 232 237 243 245 246
226 226 228 229 229 230 230 230 231 233 229 230 231 231 231 230 228 231 232 233 233 234 234 232 234 232 231 232 232 233 231 226 224 224 228 228 230 230 230 235 239 244 243 240
223 226 229 230 231 231 231 232 233 235 232 230 231 234 233 232 232 232 233 234 234 234 234 236 236 236 235 232 232 232 232 232 227 227 230 230 225 229 233 236 232 236 246 249
221 225 227 229 232 233 235 236 235 234 237 235 231 233 234 235 235 234 235 235 236 236 235 235 236 236 237 237 236 234 233 233 233 233 231 232 226 226 228 233 230 233 240 245
236 232 229 230 231 231 234 236 237 237 238 239 236 232 234 237 237 236 236 237 238 238 236 236 235 235 235 235 236 236 236 235 235 232 233 234 231 231 228 228 230 232 235 235
264 242 238 236 234 234 236 237 237 238 238 237 237 239 236 234 237 240 240 239 239 240 239 238 237 237 237 237 237 237 237 237 236 235 235 232 229 228 230 230 230 233 239 241
299 292 263 247 242 239 236 237 240 241 241 240 239 238 235 236 237 238 238 240 241 241 241 242 241 240 239 239 238 237 237 238 239 238 237 236 234 230 234 237 236 237 240 243